EW9748 Weather Reports


Display with metric or nautical units.
time (UTC)temp
F
wind
direction
speed
MPH
gust
MPH
rain 1hr
in
rain 24hr
in
rain mn
in
humidity
%
barometer
mb
20260509023053 71 5 0.0 0.0 0.00 0.00 0.00 76 1004.9
20260509021553 72 5 0.0 0.0 0.00 0.00 0.00 76 1004.8
20260509020052 72 5 0.0 0.0 0.00 0.00 0.00 75 1004.6
20260509014552 73 5 0.0 0.0 0.00 0.00 0.00 73 1004.4
20260509013056 73 5 0.0 0.0 0.00 0.00 0.00 72 1004.5
20260509011551 74 5 0.0 0.0 0.00 0.00 0.00 71 1004.3
20260509010050 75 5 0.0 0.0 0.00 0.00 0.00 69 1004.2
20260509004650 76 5 0.0 0.0 0.00 0.00 0.00 67 1004.1
20260509003051 76 5 0.0 0.0 0.00 0.00 0.00 66 1004.0
20260509001552 77 5 0.0 0.0 0.00 0.00 0.00 65 1003.9
20260509000048 77 5 0.0 0.0 0.00 0.00 0.00 65 1003.9
20260508234548 77 5 0.0 0.0 0.00 0.00 0.00 64 1003.8
20260508233047 77 5 0.0 0.0 0.00 0.00 0.00 64 1003.9
20260508231547 77 5 0.0 1.0 0.00 0.00 0.00 64 1003.7
20260508230048 78 5 0.0 1.0 0.00 0.00 0.00 61 1003.7
20260508224550 79 5 0.0 4.0 0.00 0.00 0.00 60 1003.6
20260508223049 80 5 0.0 1.0 0.00 0.00 0.00 59 1003.7
20260508221540 79 5 0.0 0.0 0.00 0.00 0.00 61 1003.9
20260508220039 78 5 0.0 0.0 0.00 0.00 0.00 62 1004.0
20260508214552 77 5 0.0 0.0 0.00 0.00 0.00 63 1004.3
20260508213034 78 5 0.0 0.0 0.00 0.00 0.00 61 1004.6
20260508211533 78 5 0.0 0.0 0.00 0.00 0.00 61 1004.7
20260508210035 79 5 0.0 0.0 0.00 0.00 0.00 59 1004.9
20260508204533 79 5 0.0 0.0 0.00 0.00 0.00 59 1005.0
20260508203026 79 5 0.0 0.0 0.00 0.00 0.00 59 1005.3
20260508201526 79 5 0.0 1.0 0.00 0.00 0.00 59 1005.4
20260508200026 79 5 0.0 0.0 0.00 0.00 0.00 60 1005.5
20260508194522 79 5 0.0 0.0 0.00 0.00 0.00 59 1005.8
20260508193022 79 5 0.0 1.0 0.00 0.00 0.00 59 1005.9
20260508191519 79 5 0.0 1.0 0.00 0.00 0.00 60 1006.2
20260508190036 79 5 0.0 4.0 0.00 0.00 0.00 59 1006.5
20260508184527 79 5 0.0 0.0 0.00 0.00 0.00 59 1006.5
20260508183026 79 5 0.0 1.0 0.00 0.00 0.00 60 1006.8
20260508181509 79 5 0.0 0.0 0.00 0.00 0.00 58 1007.0
20260508180005 78 5 0.0 0.0 0.00 0.00 0.00 61 1007.4
20260508174502 77 5 0.0 0.0 0.00 0.00 0.00 63 1007.6
20260508173058 76 5 0.0 0.0 0.00 0.00 0.00 66 1007.8
20260508171553 74 5 0.0 0.0 0.00 0.00 0.00 68 1008.1
20260508170049 72 5 0.0 0.0 0.00 0.00 0.00 72 1008.4
20260508164550 70 5 0.0 0.0 0.00 0.00 0.00 73 1008.6
20260508163041 69 5 0.0 0.0 0.00 0.00 0.00 73 1009.0
20260508161537 65 5 0.0 0.0 0.00 0.00 0.00 76 1009.6
20260508160036 64 5 0.0 0.0 0.00 0.00 0.00 77 1009.7
20260508154535 64 5 0.0 0.0 0.00 0.00 0.00 78 1009.7
20260508153035 62 5 0.0 1.0 0.00 0.00 0.00 78 1010.0
20260508151528 63 5 0.0 1.0 0.00 0.00 0.00 77 1010.2
20260508150030 63 5 0.0 0.0 0.00 0.00 0.00 77 1010.3
20260508144530 63 5 0.0 0.0 0.00 0.00 0.00 77 1010.1
20260508143024 62 5 0.0 0.0 0.00 0.00 0.00 79 1010.0
20260508141522 61 5 0.0 0.0 0.00 0.00 0.00 80 1010.0
20260508140022 59 5 0.0 0.0 0.00 0.00 0.00 80 1010.3
20260508134514 59 5 0.0 0.0 0.00 0.00 0.00 80 1010.5
20260508133013 59 5 0.0 0.0 0.00 0.00 0.00 81 1010.6
20260508131512 58 5 0.0 1.0 0.00 0.00 0.00 81 1010.7
20260508130024 58 5 0.0 0.0 0.00 0.00 0.00 81 1010.7
20260508124509 58 5 0.0 0.0 0.00 0.00 0.00 81 1010.6
20260508123014 58 5 0.0 0.0 0.00 0.00 0.00 81 1010.7
20260508121507 58 5 0.0 0.0 0.00 0.00 0.00 80 1010.6
20260508120006 58 5 0.0 0.0 0.00 0.00 0.00 80 1010.6
20260508114506 58 5 0.0 0.0 0.00 0.00 0.00 80 1010.7
20260508113005 58 5 0.0 0.0 0.00 0.00 0.00 79 1010.6
20260508111506 58 5 0.0 0.0 0.00 0.00 0.00 79 1010.6
20260508110004 58 5 0.0 0.0 0.00 0.00 0.00 79 1010.7
20260508104504 58 5 0.0 0.0 0.00 0.00 0.00 79 1010.8
20260508103005 58 5 0.0 0.0 0.00 0.00 0.00 79 1010.6
20260508101502 58 5 0.0 0.0 0.00 0.00 0.00 80 1010.6
20260508100001 58 5 0.0 0.0 0.00 0.00 0.00 80 1010.7
20260508094600 58 5 0.0 0.0 0.00 0.00 0.00 80 1010.8
20260508093106 58 5 0.0 0.0 0.00 0.00 0.00 80 1011.0
20260508091558 57 5 0.0 0.0 0.00 0.00 0.00 80 1011.3
20260508090111 57 5 0.0 0.0 0.00 0.00 0.00 80 1011.2
20260508084559 57 5 0.0 0.0 0.00 0.00 0.00 81 1011.0
20260508083103 57 5 0.0 0.0 0.00 0.00 0.00 81 1011.1
20260508081601 57 5 0.0 0.0 0.00 0.00 0.00 81 1011.3
20260508074553 56 5 0.0 0.0 0.00 0.00 0.00 82 1011.1
20260508073052 56 5 0.0 0.0 0.00 0.00 0.00 82 1011.0
20260508071551 56 5 0.0 0.0 0.00 0.00 0.00 81 1010.9
20260508070050 56 5 0.0 0.0 0.00 0.00 0.00 80 1011.1
20260508064547 56 5 0.0 0.0 0.00 0.00 0.00 80 1011.2
20260508063058 56 5 0.0 0.0 0.00 0.00 0.00 79 1011.4
20260508061546 56 5 0.0 0.0 0.00 0.00 0.00 78 1011.5
20260508060041 57 5 0.0 0.0 0.00 0.00 0.00 78 1011.7
20260508054540 57 5 0.0 0.0 0.00 0.00 0.00 78 1011.8
20260508053036 57 5 0.0 0.0 0.00 0.00 0.00 78 1012.3
20260508051537 57 5 0.0 0.0 0.00 0.00 0.00 78 1012.6
20260508050038 57 5 0.0 0.0 0.00 0.00 0.00 78 1012.2
20260508044533 57 5 0.0 0.0 0.00 0.00 0.00 78 1012.3
20260508043046 57 5 0.0 0.0 0.00 0.00 0.00 78 1012.4
20260508041530 57 5 0.0 0.0 0.00 0.00 0.00 77 1012.6
20260508040036 57 5 0.0 0.0 0.00 0.00 0.00 76 1012.7
20260508034532 58 5 0.0 0.0 0.00 0.00 0.00 76 1012.8
20260508033029 58 5 0.0 0.0 0.00 0.00 0.00 76 1012.9
20260508031529 58 5 0.0 0.0 0.00 0.00 0.00 75 1012.8
20260508030036 58 5 0.0 0.0 0.00 0.00 0.00 75 1012.7
20260508024528 59 5 0.0 0.0 0.00 0.00 0.00 74 1012.4